Regional Weather Roundup
Issued by NWS

Home | Current Version | Previous Version | Graphics & Text | Print | Product List | Glossary On
Versions: 1 2 3 4 5 6 7 8 9 10 11 12 13 14 15 16 17 18 19 20 21 22 23 24 25 26 27 28 29 30 31 32 33 34 35 36 37 38 39 40 41 42 43 44 45 46 47 48 49 50
335
ASUS43 KDTX 200001
RWRMI
MICHIGAN HOURLY REGIONAL WEATHER ROUNDUP
NATIONAL WEATHER SERVICE DETROIT/PONTIAC MI
700 PM EST SUN FEB 19 2017

NOTE: "FAIR" INDICATES FEW OR NO CLOUDS BELOW 12,000 FEET WITH NO
SIGNIFICANT WEATHER AND/OR OBSTRUCTION TO VISIBILITY.

MIZ047>049-052>055-059>063-066>070-074>076-081>083-200100-
SOUTHEAST LOWER MICHIGAN

CITY           SKY/WX    TMP DP  RH WIND       PRES   REMARKS
ADRIAN         CLEAR     54  32  43 NW3       30.09R
6HR MIN TEMP:  54; 6HR MAX TEMP:  64;

ALMA           CLOUDY    47  31  54 NW7       30.09R
ANN ARBOR      PTCLDY    56  28  34 NW6       30.08R
BAD AXE        CLEAR     38  29  70 E3        30.10R
6HR MIN TEMP:  38; 6HR MAX TEMP:  53;

CARO           PTCLDY    40  34  80 CALM      30.09R
DETROIT CITY   CLOUDY    56  29  35 N6        30.09R
6HR MIN TEMP:  56; 6HR MAX TEMP:  65;

DETROIT        PTCLDY    57  28  33 N5        30.08R
6HR MIN TEMP:  56; 6HR MAX TEMP:  66;

FLINT          CLEAR     51  34  52 N5        30.09R
6HR MIN TEMP:  50; 6HR MAX TEMP:  58;

GROSSE ILE     PTCLDY    55  28  35 N5        30.07R
6HR MIN TEMP:  55; 6HR MAX TEMP:  65;

HILLSDALE      CLEAR     50  28  43 CALM      30.08R
HOWELL         PTCLDY    52  29  42 CALM      30.08R
6HR MIN TEMP:  52; 6HR MAX TEMP:  61;


CITY           SKY/WX    TMP DP  RH WIND       PRES   REMARKS
JACKSON        CLOUDY    54  27  35 NW3       30.09R
6HR MIN TEMP:  54; 6HR MAX TEMP:  64;

LAMBERTVILLE   CLEAR     53  34  48 CALM      30.08R
6HR MIN TEMP:  52; 6HR MAX TEMP:  67;

LANSING        CLOUDY    53  29  39 W5        30.09R
6HR MIN TEMP:  53; 6HR MAX TEMP:  62;

LAPEER         FAIR      50  31  48 W3        30.09R
6HR MIN TEMP:  50; 6HR MAX TEMP:  58;

MASON          PTCLDY    55  32  42 W3        30.08R
MONROE         PTCLDY    53  34  49 CALM      30.07R
6HR MIN TEMP:  53; 6HR MAX TEMP:  65;

MT. CLEMENS    PTCLDY    42  35  75 E13       30.08R
6HR MIN TEMP:  42; 6HR MAX TEMP:  63;

PONTIAC        CLOUDY    51  32  48 N6        30.08R
6HR MIN TEMP:  50; 6HR MAX TEMP:  61;

PORT HOPE        N/A     36  30  79 CALM      30.10R
6HR MIN TEMP:  36; 6HR MAX TEMP:  49;

PORT HURON     PTCLDY    37  32  81 CALM      30.11R
TRI CITIES     CLOUDY    51  31  46 N5        30.09R
6HR MIN TEMP:  49; 6HR MAX TEMP:  59;

MIDLAND        FAIR      42  30  61 CALM      30.08R
6HR MIN TEMP:  42; 6HR MAX TEMP:  58;

TROY           PTCLDY    55  29  37 N3        30.10R
SAGINAW HB     CLEAR     48  30  49 NW3       30.08S
$$
MIZ043>046-050>051-056>058-064>065-071>073-077>080-200100-
SOUTHWEST LOWER MICHIGAN

CITY           SKY/WX    TMP DP  RH WIND       PRES   REMARKS
BATTLE CREEK   CLEAR     54  26  34 NW6       30.10R
6HR MIN TEMP:  54; 6HR MAX TEMP:  64;

BENTON HARBOR  CLOUDY    48  28  46 CALM      30.09S
6HR MIN TEMP:  48; 6HR MAX TEMP:  57;

BIG RAPIDS     CLOUDY    50  23  35 NW3       30.09R
6HR MIN TEMP:  50; 6HR MAX TEMP:  58;

COLDWATER      CLEAR     53  27  37 CALM      30.09R
6HR MIN TEMP:  53; 6HR MAX TEMP:  64;

FREMONT        FAIR      48  28  45 W3        30.09R
HOLLAND        CLEAR     44  32  62 CALM      30.10R
6HR MIN TEMP:  43; 6HR MAX TEMP:  57;

GRAND RAPIDS   MOCLDY    52  27  38 W7        30.09R
6HR MIN TEMP:  51; 6HR MAX TEMP:  62;

IONIA          FAIR      52  28  39 W5        30.08R
6HR MIN TEMP:  52; 6HR MAX TEMP:  62;

KALAMAZOO      CLEAR     52  23  32 NW5       30.10R
6HR MIN TEMP:  50; 6HR MAX TEMP:  65;

LUDINGTON      CLEAR     41  31  69 CALM      30.09S
6HR MIN TEMP:  41; 6HR MAX TEMP:  55;

MARSHALL       CLOUDY    55  28  35 CALM      30.09R
6HR MIN TEMP:  53; 6HR MAX TEMP:  65;

MOUNT PLEASANT CLEAR     46  31  56 CALM      30.08R
6HR MIN TEMP:  45; 6HR MAX TEMP:  59;

MUSKEGON       PTCLDY    43  32  65 SW3       30.10R
6HR MIN TEMP:  42; 6HR MAX TEMP:  58;

SOUTH HAVEN    CLEAR     44  32  62 CALM      30.10S
$$
MIZ016>042-200100-
NORTHERN LOWER MICHIGAN

CITY           SKY/WX    TMP DP  RH WIND       PRES   REMARKS
ALPENA         CLEAR     38  30  73 N7        30.11R WCI  33
6HR MIN TEMP:  38; 6HR MAX TEMP:  51;

BEAVER ISLAND  CLOUDY    36  29  75 CALM      30.12R
6HR MIN TEMP:  36; 6HR MAX TEMP:  45;

BELLAIRE       CLOUDY    35  29  78 CALM      30.13R
6HR MIN TEMP:  35; 6HR MAX TEMP:  47;

CADILLAC       CLEAR     44  30  57 N3        30.09R
CHARLEVOIX     CLOUDY    36  29  77 CALM      30.15R
FRANKFORT      PTCLDY    40  32  72 CALM      30.11R
GAYLORD        PTCLDY    41  27  57 CALM      30.10R
6HR MIN TEMP:  41; 6HR MAX TEMP:  48;

GRAYLING       PTCLDY    42  30  64 NW3       30.11R
HARBOR SPRINGS MOCLDY    33  31  93 CALM      30.12R
HOUGHTON LAKE  CLOUDY    40  28  62 N3        30.10R
6HR MIN TEMP:  40; 6HR MAX TEMP:  52;

MANISTEE       CLEAR     40  30  67 NW3       30.10R
OSCODA         CLEAR     37  29  72 CALM      30.10R
6HR MIN TEMP:  37; 6HR MAX TEMP:  57;

PELLSTON       PTCLDY    36  28  73 W5        30.12R WCI  32
6HR MIN TEMP:  36; 6HR MAX TEMP:  44;

ROGERS CITY    CLEAR     38  29  69 CALM      30.12R
TRAVERSE CITY  MOCLDY    39  32  76 N5        30.11R
6HR MIN TEMP:  39; 6HR MAX TEMP:  49;

$$
MIZ007>008-015-200100-
EASTERN UPPER MICHIGAN

CITY           SKY/WX    TMP DP  RH WIND       PRES   REMARKS
KINROSS        CLEAR     34  28  79 NW6       30.12R WCI  29
6HR MIN TEMP:  34; 6HR MAX TEMP:  41;

MACKINAC ISLAN CLOUDY    37  30  75 NW6       30.12R WCI  32
6HR MIN TEMP:  36; 6HR MAX TEMP:  41;

NEWBERRY       PTCLDY    35  29  80 N3        30.12R
6HR MIN TEMP:  35; 6HR MAX TEMP:  44;

S. S. MARIE    CLEAR     36  28  73 NW5       30.11R WCI  32
6HR MIN TEMP:  36; 6HR MAX TEMP:  44;

MUNISING         N/A     34  33  96 CALM      30.13R
6HR MIN TEMP:  34; 6HR MAX TEMP:  40;

$$
MIZ004>006-011>014-085-200100-
CENTRAL UPPER MICHIGAN

CITY           SKY/WX    TMP DP  RH WIND       PRES   REMARKS
MANISTIQUE     CLOUDY    35  32  88 CALM      30.12R
6HR MIN TEMP:  35; 6HR MAX TEMP:  46;

ESCANABA       PTCLDY    36  30  79 E3        30.12R
6HR MIN TEMP:  36; 6HR MAX TEMP:  47;

MENOMINEE      MOCLDY    38  31  76 SE6       30.10R WCI  33
6HR MIN TEMP:  37; 6HR MAX TEMP:  49;

SAWYER-GWINN   CLEAR     34  28  80 E3        30.10R
$$
MIZ001>003-009>011-084-200100-
WESTERN UPPER MICHIGAN

CITY           SKY/WX    TMP DP  RH WIND       PRES   REMARKS
IRON MOUNTAIN  CLOUDY    42  29  59 E6        30.06R
6HR MIN TEMP:  41; 6HR MAX TEMP:  52;

HOUGHTON       MOCLDY    34  28  79 E10       30.07S WCI  26
6HR MIN TEMP:  34; 6HR MAX TEMP:  45;

COPPER HARBOR    N/A     35  30  82 CALM      30.11R
6HR MIN TEMP:  35; 6HR MAX TEMP:  40;

IRONWOOD       PTCLDY    49  28  44 E10       29.98F
6HR MIN TEMP:  48; 6HR MAX TEMP:  57;

$$

ABBREVIATIONS USED IN REMARKS
   TC - TEMPERATURE IN CELSIUS
  WCI - WIND CHILL INDEX
   HX - HEAT INDEX
  VSB - VISIBILITY





USA.gov is the U.S. government's official web portal to all federal, state and local government web resources and services.